#timestamp,LO_Frequency,Hit,StdDev 
1524106815.8,286047002.8,Y
1524106835.6,286046999.0,P
1524106855.5,286047000.7,N
1524106875.3,286047000.7,N
1524106895.1,286046998.2,N
1524106915.9,286046998.2,N
1524106935.7,286046996.9,N
1524106955.6,286046997.8,N
1524106975.4,286046999.5,N
1524106995.2,286046998.8,N
1524107015.1,286046997.1,N
1524107016.0,286046997.1,N
1524107035.8,286046997.8,N
1524107055.7,286046999.6,N
1524107075.5,286046998.9,N
1524107095.3,286046998.3,N
1524107115.2,286046998.3,N
1524107135.9,286046998.1,N
1524107155.7,286047000.1,N
1524107175.6,286047002.7,N
1524107195.4,286047001.2,N
1524107215.3,286046998.7,N
1524107235.1,286046999.0,N
1524107236.0,286046999.0,N
1524107255.8,286046999.4,N
1524107275.7,286046998.6,N
1524107295.5,286046999.2,N
1524107315.3,286046998.7,N
1524107335.2,286047000.6,N
1524107355.0,286047000.8,N
1524107355.9,286047000.8,N
1524107375.8,286046998.4,N
1524107395.6,286046998.6,N
1524107415.4,286046998.6,N
1524107435.3,286046998.6,N
1524107455.1,286046998.8,N
1524107475.9,286046999.2,N
1524107495.7,286046996.9,N
1524107515.5,286046999.5,N
1524107535.4,286046998.2,N
1524107555.2,286047001.0,N
1524107575.0,286046998.9,N
1524107575.9,286046998.9,N
1524107595.8,286047000.8,N
1524107615.6,286046999.1,N
1524107635.5,286046999.2,N
1524107655.3,286046996.6,N
1524107675.1,286046997.8,N
1524107695.9,286046997.6,N
1524107715.7,286046997.4,N
1524107735.5,286046997.8,N
1524107755.4,286046999.2,N
1524107775.2,286046999.2,N
1524107795.1,286046999.3,N
1524107796.0,286046999.3,N
1524107815.8,286046998.9,N
1524107835.6,286046998.6,N
1524107855.5,286046998.4,N
1524107875.3,286047001.2,N
1524107895.1,286047001.0,N
1524107915.9,286047000.3,N
1524107935.7,286047000.0,N
1524107955.6,286047000.8,N
1524107975.4,286046998.3,N
1524107995.2,286046998.2,N
1524108015.1,286046998.5,N
1524108016.0,286046998.5,N
1524108035.8,286047000.6,N
1524108055.7,286047002.0,N
1524108075.5,286047002.5,N
1524108095.3,286047002.8,N
1524108115.2,286046999.8,N
1524108135.0,286047002.8,N
1524108135.9,286047002.8,N
1524108155.7,286047000.1,N
1524108175.6,286047002.4,N
1524108195.4,286046998.2,N
1524108215.3,286046999.4,N
1524108235.1,286046998.7,N
1524108236.0,286046998.7,N
1524108255.8,286046998.3,N
1524108275.7,286046999.4,N
1524108295.5,286047001.0,N
1524108315.3,286047002.8,N
1524108335.2,286047002.4,N
1524108355.0,286046998.6,N
1524108355.9,286046998.6,N
1524108375.8,286046998.6,N
1524108395.6,286046998.2,N
1524108415.4,286047000.2,N
1524108435.3,286047002.0,N
1524108455.1,286047001.1,N
1524108475.9,286046999.0,N
1524108495.7,286046999.0,N
1524108515.5,286047001.2,N
1524108535.4,286047000.0,N
1524108555.2,286047002.8,N
1524108575.0,286047002.3,N
1524108575.9,286047002.3,N
1524108595.8,286046999.8,N
1524108615.6,286047000.0,N
1524108635.5,286047001.1,N
1524108655.3,286047001.2,N
1524108675.1,286047001.2,N
1524108695.9,286046999.9,N
1524108715.7,286047001.9,N
1524108735.5,286047004.4,N
1524108755.4,286047002.0,N
1524108775.2,286047002.5,N
1524108795.1,286047001.6,N
1524108796.0,286047001.6,N
1524108815.8,286047003.7,N
1524108835.6,286047003.1,N
1524108855.5,286047003.1,N
1524108875.3,286047003.4,N
1524108895.1,286047003.4,N
1524108915.9,286047001.7,N
1524108935.7,286047001.6,N
1524108955.6,286047002.5,N
1524108975.4,286047002.2,N
1524108995.2,286047002.6,N
1524109015.1,286047000.1,N
1524109016.0,286047000.1,N
1524109035.8,286047000.9,N
1524109055.7,286046998.6,N
1524109075.5,286047000.5,N
1524109095.3,286047000.2,N
1524109115.2,286047002.6,N
1524109135.9,286047002.6,N
1524109155.7,286047002.8,N
1524109175.6,286046999.9,N
1524109195.4,286047001.1,N
1524109215.3,286046999.6,N
1524109235.1,286046998.7,N
1524109236.0,286046998.7,N
1524109255.8,286046998.9,N
1524109275.7,286046997.4,N
1524109295.5,286046996.9,N
1524109315.3,286046997.2,N
1524109335.2,286046995.3,N
1524109355.0,286046996.1,N
1524109355.9,286046996.1,N
1524109375.8,286046996.0,N
1524109395.6,286046993.7,N
1524109415.4,286046996.3,N
1524109435.3,286046993.8,N
1524109455.1,286046996.2,N
1524109475.8,286046995.6,N
1524109495.7,286046997.5,N
1524109515.5,286046998.6,N
1524109535.4,286046996.5,N
1524109555.2,286046997.5,N
1524109575.0,286046995.5,N
1524109575.9,286046995.5,N
1524109595.8,286046997.7,N
1524109615.6,286046997.5,N
1524109635.5,286046998.0,N
1524109655.3,286046997.2,N
1524109675.1,286046997.9,N
1524109695.9,286046995.3,N
1524109715.7,286046997.2,N
1524109735.5,286046999.0,N
1524109755.4,286046999.1,N
1524109775.2,286046999.2,N
1524109795.1,286046999.5,N
1524109796.0,286046999.5,N
1524109815.8,286046999.0,N
1524109835.6,286046999.0,N
1524109855.5,286046996.5,N
1524109875.3,286046998.5,N
1524109895.2,286046999.2,N
1524109915.9,286046997.9,N
1524109935.7,286046996.9,N
1524109955.6,286046996.6,N
1524109975.4,286046997.2,N
1524109995.2,286046996.7,N
1524110015.1,286046995.3,Y
1524110016.0,286046995.3,P
1524110035.8,286046999.1,N
1524110055.7,286047000.9,N
1524110075.5,286046999.8,N
1524110095.3,286047000.3,N
1524110115.2,286047001.1,N
1524110135.0,286046998.5,N
1524110135.9,286046998.5,N
1524110155.8,286046996.5,N
1524110175.6,286046999.4,N
1524110195.4,286046999.5,N
1524110215.3,286046998.7,N
1524110235.1,286047000.5,N
1524110255.9,286047000.0,N
1524110275.7,286047002.3,N
1524110295.5,286047002.7,N
1524110315.4,286047000.8,N
1524110335.2,286047000.4,N
1524110355.0,286047000.2,N
1524110355.9,286047000.2,N
1524110375.8,286047000.0,N
1524110395.6,286047002.3,N
